Regional Weather Roundup
Issued by NWS

Home | Current Version | Previous Version | Text Only | Print | Product List | Glossary Off
Versions: 1 2 3 4 5 6 7 8 9 10 11 12 13 14 15 16 17 18 19 20 21 22 23 24 25 26 27 28 29 30 31 32 33 34 35 36 37 38 39 40 41 42 43 44 45 46 47 48 49 50

000
ASUS45 KCYS 311010
RWRWY

WYOMING REGIONAL WEATHER ROUNDUP
NATIONAL WEATHER SERVICE CHEYENNE WY
300 AM MST SAT JAN 31 2015

NOTE:  "FAIR" INDICATES FEW OR NO CLOUDS BELOW 12,000 FEET
WITH NO SIGNIFICANT WEATHER AND/OR OBSTRUCTIONS TO VISIBILITY.

WYZ001-311100-
YELLOWSTONE NATIONAL PARK

CITY           SKY/WX    TMP DP  RH WIND       PRES   REMARKS
LK YELLOWSTONE   N/A     -4  -9  79 CALM      30.06S
W YELLOWSTONE  NOT AVBL

$$
WYZ002>013-054>058-071-098>099-311100-
NORTHERN WYOMING

CITY           SKY/WX    TMP DP  RH WIND       PRES   REMARKS
JACKSON        FAIR       5   5 100 N8        30.05S WCI  -8
CODY           FAIR      34  14  44 S17       29.93F WCI  23
GREYBULL       FOG       25  23  92 CALM      30.00F VSB 1/4
WORLAND        CLOUDY    19  17  92 S5        29.98F WCI  12
SHERIDAN       FAIR      24  19  81 NW9       29.93F WCI  14
BUFFALO        FAIR      35  12  38 SE9       29.91F WCI  28
GILLETTE       FAIR      31  23  72 S12       29.95F WCI  22
HULETT           N/A    N/A N/A N/A MISG        N/A
NEWCASTLE      FAIR      28  23  80 NE3       30.01F

$$
WYZ014>020-022>026-101>103-311100-
CENTRAL WYOMING

CITY           SKY/WX    TMP DP  RH WIND       PRES   REMARKS
BIG PINEY      CLOUDY    25  22  88 W3        30.00F
PINEDALE       PTSUNNY   25  16  68 NW7       30.00S WCI  17
DUBOIS         FAIR      23  12  63 W9        29.98F WCI  13
LANDER         CLOUDY    30  23  75 CALM      29.98F
RIVERTON       MOCLDY    29  24  82 CALM      29.99F
CASPER         FAIR      24  21  88 W3        29.98F
DOUGLAS        FAIR      26  23  88 CALM      29.99F

$$
WYZ021-027>030-104>119-311100-
SOUTHERN WYOMING

CITY           SKY/WX    TMP DP  RH WIND       PRES   REMARKS
EVANSTON       LGT SNOW  30  27  88 NE9       29.99S FOG     WCI  22
KEMMERER       CLOUDY    30  28  93 N9        30.01S WCI  22
FORT BRIDGER   FLURRIES  29  29 100 NE7       30.03S WCI  22
ROCK SPRINGS   CLOUDY    27  26  96 NW3       29.99S FOG
DIXON          FLURRIES  33  32  94 CALM      29.94S
RAWLINS        CLOUDY    31  21  66 NE12      29.94F WCI  22
SARATOGA       LGT SNOW  30  30 100 W3        29.93F
LARAMIE        CLOUDY    28  23  81 CALM      29.93F
CHEYENNE       CLOUDY    32  23  69 N6        29.95F WCI  26
TORRINGTON     FAIR      31  25  78 N6        29.98F WCI  25
PINE BLUFFS    CLOUDY    32  27  80 N8        29.97F WCI  25

$$


USA.gov is the U.S. government's official web portal to all federal, state and local government web resources and services.